Terminal Aerodrome Forecast
Issued by NWS

Home | Current Version | Previous Version | Text Only | Print | Product List | Glossary On
Versions: 1 2 3 4 5 6 7 8 9 10 11 12 13 14 15 16
000
FTUS43 KICT 061720
TAFSLN
TAF
KSLN 061720Z 0618/0718 25011KT P6SM SKC
      TEMPO 0619/0622 26012G20KT
     FM070000 21008KT P6SM SKC
     FM071500 31008KT P6SM SKC=

USA.gov is the U.S. government's official web portal to all federal, state and local government web resources and services.